Time,TemperatureF,DewpointF,PressureIn,WindDirection,WindDirectionDegrees,WindSpeedMPH,WindSpeedGustMPH,Humidity,HourlyPrecipIn,Conditions,Clouds,dailyrainin,SoftwareType,DateUTC
2013-02-18 00:09:00,15.1,0.0,29.73,West,271,15.0,26.0,51,0.00,,,0.00,weatherlink.com 1.10,2013-02-18 05:09:00,
2013-02-18 00:24:00,14.9,0.0,29.74,West,278,6.0,25.0,51,0.00,,,0.00,weatherlink.com 1.10,2013-02-18 05:24:00,
2013-02-18 00:39:00,14.7,0.0,29.75,WSW,253,11.0,22.0,52,0.00,,,0.00,weatherlink.com 1.10,2013-02-18 05:39:00,
2013-02-18 00:54:00,14.5,0.0,29.75,West,278,11.0,25.0,52,0.00,,,0.00,weatherlink.com 1.10,2013-02-18 05:54:00,
2013-02-18 01:09:00,14.4,0.0,29.76,WNW,290,9.0,23.0,52,0.00,,,0.00,weatherlink.com 1.10,2013-02-18 06:09:00,
2013-02-18 01:24:00,14.3,-1.0,29.76,WNW,287,8.0,22.0,52,0.00,,,0.00,weatherlink.com 1.10,2013-02-18 06:24:00,
2013-02-18 01:39:00,14.4,0.0,29.77,WSW,242,7.0,23.0,52,0.00,,,0.00,weatherlink.com 1.10,2013-02-18 06:39:00,
2013-02-18 01:55:00,14.3,-1.0,29.77,NW,312,10.0,26.0,52,0.00,,,0.00,weatherlink.com 1.10,2013-02-18 06:55:00,
2013-02-18 02:10:00,14.3,-1.0,29.78,WNW,283,5.0,21.0,51,0.00,,,0.00,weatherlink.com 1.10,2013-02-18 07:10:00,
2013-02-18 02:25:00,14.3,-1.0,29.78,West,281,9.0,21.0,51,0.00,,,0.00,weatherlink.com 1.10,2013-02-18 07:25:00,
2013-02-18 02:40:00,14.3,-1.0,29.79,West,271,7.0,19.0,51,0.00,,,0.00,weatherlink.com 1.10,2013-02-18 07:40:00,
2013-02-18 02:55:00,14.2,-1.0,29.79,WNW,284,8.0,15.0,51,0.00,,,0.00,weatherlink.com 1.10,2013-02-18 07:55:00,
2013-02-18 03:10:00,14.2,-1.0,29.81,West,271,5.0,20.0,51,0.00,,,0.00,weatherlink.com 1.10,2013-02-18 08:10:00,
2013-02-18 03:25:00,14.0,-1.0,29.81,West,271,13.0,21.0,51,0.00,,,0.00,weatherlink.com 1.10,2013-02-18 08:25:00,
2013-02-18 03:40:00,13.9,-1.0,29.81,West,259,13.0,22.0,51,0.00,,,0.00,weatherlink.com 1.10,2013-02-18 08:40:00,
2013-02-18 03:55:00,13.9,-1.0,29.82,WSW,255,8.0,22.0,51,0.00,,,0.00,weatherlink.com 1.10,2013-02-18 08:55:00,
2013-02-18 04:10:00,13.9,-1.0,29.83,WNW,293,8.0,20.0,52,0.00,,,0.00,weatherlink.com 1.10,2013-02-18 09:10:00,
2013-02-18 04:26:00,13.9,-1.0,29.84,NW,321,7.0,21.0,52,0.00,,,0.00,weatherlink.com 1.10,2013-02-18 09:26:00,
2013-02-18 04:40:00,14.0,-1.0,29.84,West,276,7.0,22.0,52,0.00,,,0.00,weatherlink.com 1.10,2013-02-18 09:40:00,
2013-02-18 04:55:00,14.1,-1.0,29.85,WNW,284,4.0,22.0,52,0.00,,,0.00,weatherlink.com 1.10,2013-02-18 09:55:00,
2013-02-18 05:10:00,14.0,-1.0,29.87,WNW,289,4.0,24.0,52,0.00,,,0.00,weatherlink.com 1.10,2013-02-18 10:10:00,
2013-02-18 05:26:00,14.0,-1.0,29.88,SW,221,4.0,24.0,52,0.00,,,0.00,weatherlink.com 1.10,2013-02-18 10:26:00,
2013-02-18 05:41:00,13.7,-1.0,29.89,NW,305,4.0,13.0,53,0.00,,,0.00,weatherlink.com 1.10,2013-02-18 10:41:00,
2013-02-18 05:56:00,13.7,-1.0,29.91,WNW,293,8.0,20.0,53,0.00,,,0.00,weatherlink.com 1.10,2013-02-18 10:56:00,
2013-02-18 06:11:00,13.8,-1.0,29.91,WNW,294,8.0,21.0,53,0.00,,,0.00,weatherlink.com 1.10,2013-02-18 11:11:00,
2013-02-18 06:26:00,13.8,-1.0,29.92,West,266,14.0,24.0,52,0.00,,,0.00,weatherlink.com 1.10,2013-02-18 11:26:00,
2013-02-18 06:41:00,13.6,-1.0,29.94,West,281,7.0,21.0,53,0.00,,,0.00,weatherlink.com 1.10,2013-02-18 11:41:00,
2013-02-18 06:56:00,13.6,-1.0,29.95,WNW,285,10.0,18.0,53,0.00,,,0.00,weatherlink.com 1.10,2013-02-18 11:56:00,
2013-02-18 07:11:00,13.9,-1.0,29.96,WNW,297,7.0,23.0,53,0.00,,,0.00,weatherlink.com 1.10,2013-02-18 12:11:00,
2013-02-18 07:26:00,14.4,0.0,29.97,NW,309,5.0,21.0,52,0.00,,,0.00,weatherlink.com 1.10,2013-02-18 12:26:00,
2013-02-18 07:42:00,14.8,0.0,29.97,WNW,298,4.0,23.0,51,0.00,,,0.00,weatherlink.com 1.10,2013-02-18 12:42:00,
2013-02-18 07:57:00,15.4,-1.0,29.98,West,271,7.0,20.0,49,0.00,,,0.00,weatherlink.com 1.10,2013-02-18 12:57:00,
2013-02-18 08:11:00,15.7,-1.0,30.00,WNW,287,16.0,20.0,49,0.00,,,0.00,weatherlink.com 1.10,2013-02-18 13:11:00,
2013-02-18 08:26:00,16.2,-1.0,30.00,West,266,10.0,22.0,48,0.00,,,0.00,weatherlink.com 1.10,2013-02-18 13:26:00,
2013-02-18 08:41:00,16.9,0.0,30.00,WSW,255,19.0,26.0,47,0.00,,,0.00,weatherlink.com 1.10,2013-02-18 13:41:00,
2013-02-18 08:57:00,17.4,0.0,30.01,NW,307,8.0,23.0,47,0.00,,,0.00,weatherlink.com 1.10,2013-02-18 13:57:00,
2013-02-18 09:12:00,17.9,0.0,30.01,WNW,284,7.0,20.0,46,0.00,,,0.00,weatherlink.com 1.10,2013-02-18 14:12:00,
2013-02-18 09:27:00,18.2,1.0,30.02,West,277,9.0,27.0,46,0.00,,,0.00,weatherlink.com 1.10,2013-02-18 14:27:00,
2013-02-18 09:42:00,19.1,0.0,30.01,WNW,293,14.0,23.0,44,0.00,,,0.00,weatherlink.com 1.10,2013-02-18 14:42:00,
2013-02-18 09:57:00,19.7,0.0,30.02,SSW,211,5.0,18.0,43,0.00,,,0.00,weatherlink.com 1.10,2013-02-18 14:57:00,
2013-02-18 10:12:00,20.6,1.0,30.02,West,268,6.0,22.0,42,0.00,,,0.00,weatherlink.com 1.10,2013-02-18 15:12:00,
2013-02-18 10:27:00,21.6,0.0,30.01,NNW,332,9.0,26.0,39,0.00,,,0.00,weatherlink.com 1.10,2013-02-18 15:27:00,
2013-02-18 10:42:00,22.5,0.0,30.02,WNW,295,9.0,22.0,37,0.00,,,0.00,weatherlink.com 1.10,2013-02-18 15:42:00,
2013-02-18 10:57:00,23.2,0.0,30.02,West,262,6.0,21.0,37,0.00,,,0.00,weatherlink.com 1.10,2013-02-18 15:57:00,
2013-02-18 11:12:00,23.4,-1.0,30.03,NW,313,10.0,20.0,34,0.00,,,0.00,weatherlink.com 1.10,2013-02-18 16:12:00,
2013-02-18 11:27:00,23.6,-1.0,30.03,WNW,300,7.0,29.0,34,0.00,,,0.00,weatherlink.com 1.10,2013-02-18 16:27:00,
2013-02-18 11:43:00,24.7,-1.0,30.04,West,278,10.0,23.0,32,0.00,,,0.00,weatherlink.com 1.10,2013-02-18 16:43:00,
2013-02-18 11:57:00,26.1,-1.0,30.04,WNW,291,5.0,27.0,31,0.00,,,0.00,weatherlink.com 1.10,2013-02-18 16:57:00,
2013-02-18 12:13:00,26.1,-1.0,30.04,WNW,295,6.0,23.0,31,0.00,,,0.00,weatherlink.com 1.10,2013-02-18 17:13:00,
2013-02-18 12:28:00,26.9,-2.0,30.04,NW,321,7.0,19.0,29,0.00,,,0.00,weatherlink.com 1.10,2013-02-18 17:28:00,
2013-02-18 12:43:00,26.9,-2.0,30.04,NW,309,6.0,20.0,28,0.00,,,0.00,weatherlink.com 1.10,2013-02-18 17:43:00,
2013-02-18 12:58:00,27.1,-2.0,30.05,WNW,301,9.0,21.0,28,0.00,,,0.00,weatherlink.com 1.10,2013-02-18 17:58:00,
2013-02-18 13:13:00,27.8,-2.0,30.04,West,263,10.0,21.0,27,0.00,,,0.00,weatherlink.com 1.10,2013-02-18 18:13:00,
2013-02-18 13:28:00,27.8,-3.0,30.05,WNW,284,8.0,19.0,26,0.00,,,0.00,weatherlink.com 1.10,2013-02-18 18:28:00,
2013-02-18 13:43:00,28.1,-2.0,30.05,WNW,288,19.0,19.0,27,0.00,,,0.00,weatherlink.com 1.10,2013-02-18 18:43:00,
2013-02-18 13:58:00,27.9,-3.0,30.05,NW,313,8.0,26.0,26,0.00,,,0.00,weatherlink.com 1.10,2013-02-18 18:58:00,
2013-02-18 14:13:00,28.1,-4.0,30.05,West,274,6.0,21.0,25,0.00,,,0.00,weatherlink.com 1.10,2013-02-18 19:13:00,
2013-02-18 14:28:00,28.6,-3.0,30.05,WNW,288,6.0,19.0,25,0.00,,,0.00,weatherlink.com 1.10,2013-02-18 19:28:00,
2013-02-18 14:43:00,28.9,-4.0,30.05,WNW,283,8.0,17.0,24,0.00,,,0.00,weatherlink.com 1.10,2013-02-18 19:43:00,
2013-02-18 14:58:00,29.2,-4.0,30.06,West,281,8.0,17.0,24,0.00,,,0.00,weatherlink.com 1.10,2013-02-18 19:58:00,
2013-02-18 15:13:00,29.5,-3.0,30.06,WSW,253,11.0,16.0,24,0.00,,,0.00,weatherlink.com 1.10,2013-02-18 20:13:00,
2013-02-18 15:29:00,29.5,-2.0,30.06,NNW,340,5.0,17.0,26,0.00,,,0.00,weatherlink.com 1.10,2013-02-18 20:29:00,
2013-02-18 15:44:00,29.5,-2.0,30.07,WSW,248,8.0,17.0,26,0.00,,,0.00,weatherlink.com 1.10,2013-02-18 20:44:00,
2013-02-18 15:59:00,29.2,-3.0,30.07,West,262,4.0,16.0,25,0.00,,,0.00,weatherlink.com 1.10,2013-02-18 20:59:00,
2013-02-18 16:14:00,29.6,-2.0,30.08,West,274,8.0,13.0,26,0.00,,,0.00,weatherlink.com 1.10,2013-02-18 21:14:00,
2013-02-18 16:29:00,29.2,-3.0,30.09,WSW,246,10.0,16.0,25,0.00,,,0.00,weatherlink.com 1.10,2013-02-18 21:29:00,
2013-02-18 16:44:00,28.6,-3.0,30.09,West,271,3.0,19.0,25,0.00,,,0.00,weatherlink.com 1.10,2013-02-18 21:44:00,
2013-02-18 16:59:00,28.2,-2.0,30.10,WNW,288,8.0,16.0,27,0.00,,,0.00,weatherlink.com 1.10,2013-02-18 21:59:00,
2013-02-18 17:14:00,27.7,-2.0,30.10,WSW,256,1.0,17.0,27,0.00,,,0.00,weatherlink.com 1.10,2013-02-18 22:14:00,
2013-02-18 17:29:00,27.3,-2.0,30.11,WSW,249,11.0,12.0,28,0.00,,,0.00,weatherlink.com 1.10,2013-02-18 22:29:00,
2013-02-18 17:44:00,26.8,-2.0,30.12,SW,233,6.0,14.0,29,0.00,,,0.00,weatherlink.com 1.10,2013-02-18 22:44:00,
2013-02-18 18:00:00,26.6,-1.0,30.12,West,281,6.0,13.0,30,0.00,,,0.00,weatherlink.com 1.10,2013-02-18 23:00:00,
2013-02-18 18:14:00,26.3,-1.0,30.13,WNW,293,6.0,11.0,30,0.00,,,0.00,weatherlink.com 1.10,2013-02-18 23:14:00,
2013-02-18 18:34:00,26.1,-2.0,30.13,West,262,2.0,12.0,30,0.00,,,0.00,weatherlink.com 1.10,2013-02-18 23:34:00,
2013-02-18 18:45:00,26.0,-2.0,30.14,WSW,253,6.0,14.0,30,0.00,,,0.00,weatherlink.com 1.10,2013-02-18 23:45:00,
2013-02-18 19:00:00,25.8,-2.0,30.14,West,278,3.0,13.0,30,0.00,,,0.00,weatherlink.com 1.10,2013-02-19 00:00:00,
2013-02-18 19:15:00,25.6,-1.0,30.14,WNW,287,4.0,15.0,31,0.00,,,0.00,weatherlink.com 1.10,2013-02-19 00:15:00,
2013-02-18 19:30:00,25.5,-1.0,30.15,WNW,285,2.0,12.0,31,0.00,,,0.00,weatherlink.com 1.10,2013-02-19 00:30:00,
2013-02-18 19:45:00,25.3,-2.0,30.15,West,262,2.0,14.0,31,0.00,,,0.00,weatherlink.com 1.10,2013-02-19 00:45:00,
2013-02-18 20:00:00,25.1,-1.0,30.15,WNW,288,1.0,11.0,32,0.00,,,0.00,weatherlink.com 1.10,2013-02-19 01:00:00,
2013-02-18 20:15:00,24.9,-1.0,30.16,WNW,284,5.0,9.0,33,0.00,,,0.00,weatherlink.com 1.10,2013-02-19 01:15:00,
2013-02-18 20:30:00,24.7,-1.0,30.17,SW,236,4.0,9.0,33,0.00,,,0.00,weatherlink.com 1.10,2013-02-19 01:30:00,
2013-02-18 20:45:00,24.6,0.0,30.18,WSW,253,2.0,7.0,34,0.00,,,0.00,weatherlink.com 1.10,2013-02-19 01:45:00,
2013-02-18 21:00:00,24.5,-1.0,30.18,WSW,246,0.0,7.0,33,0.00,,,0.00,weatherlink.com 1.10,2013-02-19 02:00:00,
2013-02-18 21:15:00,24.3,-1.0,30.18,WNW,288,3.0,8.0,34,0.00,,,0.00,weatherlink.com 1.10,2013-02-19 02:15:00,
2013-02-18 21:30:00,24.3,0.0,30.18,WNW,300,5.0,5.0,35,0.00,,,0.00,weatherlink.com 1.10,2013-02-19 02:30:00,
2013-02-18 21:46:00,24.3,-1.0,30.17,WNW,282,0.0,6.0,34,0.00,,,0.00,weatherlink.com 1.10,2013-02-19 02:46:00,
2013-02-18 22:15:00,23.8,0.0,30.19,WSW,253,1.0,6.0,36,0.00,,,0.00,weatherlink.com 1.10,2013-02-19 03:15:00,
2013-02-18 22:31:00,24.0,0.0,30.20,West,264,2.0,7.0,35,0.00,,,0.00,weatherlink.com 1.10,2013-02-19 03:31:00,
2013-02-18 22:46:00,24.1,0.0,30.19,West,281,2.0,5.0,35,0.00,,,0.00,weatherlink.com 1.10,2013-02-19 03:46:00,
2013-02-18 23:01:00,24.0,1.0,30.19,WNW,287,1.0,5.0,36,0.00,,,0.00,weatherlink.com 1.10,2013-02-19 04:01:00,
2013-02-18 23:15:00,24.0,1.0,30.19,WNW,302,0.0,3.0,36,0.00,,,0.00,weatherlink.com 1.10,2013-02-19 04:15:00,
2013-02-18 23:30:00,23.9,0.0,30.19,NW,318,1.0,4.0,36,0.00,,,0.00,weatherlink.com 1.10,2013-02-19 04:30:00,
2013-02-18 23:45:00,23.6,1.0,30.20,WNW,285,0.0,2.0,37,0.00,,,0.00,weatherlink.com 1.10,2013-02-19 04:45:00,